Showing default

TIANLIAN-2 04, 63361

Orbit data source: Space-Track

TIANLIAN-2 04, 63361 is a payload satellite owned by CAST (CN) in GEO that was launched on Wed, 26 Mar 2025 UTC via a CHANG ZHENG 3B launch vehicle from the Xichang Space Center, China (XSC). Payload-class satellites include a variety of spacecraft equipped with specific instruments for various scientific and technological missions. These include communications satellites like Starlink; space stations such as the ISS; scientific satellites like the Hubble; Earth observation satellites from companies like Planet Labs, Umbra, and HawkEye 360; GPS; miniature CubeSats for education and research; and military/defense satellites.

Not visible in the next 10 days
Identifier
63361, 2025-062A
Orbit
GEO
Country
Flag of CNCN / PRC
Related business
Manufacturer
CAST
Mission
Operational Civil Communications
Bus & Motor
DFH-4, FY-25
Mass
~5,000 kg wet, ~2,000 kg dry
Launch date (UTC)
2025-03-26 (6 months ago)
Launch vehicle
CHANG ZHENG 3B
Launch site
Xichang Space Center, China (XSC)
Object type
Payload
Rocket body
Debris
Shape & HBR
Box + 2 Pan + 1 Dish, 10.0 m
Radar Cross Section
40.604 m², Large (>1 m²)

Expand to show TLE details & history
Last TLE update: 15 hours ago

TLE from 15 hours ago
0 TIANLIAN-2 04
1 63361U 25062A   25257.60134498 -.00000150  00000-0  00000-0 0  9997
2 63361   5.0870 278.1939 0032377 356.3588  15.7727  1.00269798  1844
Epoch: 2025-09-14T14:25Z
TLE epoch observation values (Epoch: 2025-09-14T14:25:56.206Z)
Latitude
1.08828°
Longitude
80.08003°
Altitude
35,655.536 km
Speed
3.084 km/s
True Right ascension
19h 21m 31s
True Declination
1° 05' 14"
Sunlit
Object was in daylight at epoch
Visualization orbit readout
Latitude
Unknown
Longitude
Unknown
Altitude
Unknown
Speed
Unknown
Apparent Right ascension
Unknown
Apparent Declination
Unknown
Sunlit
N/A
Visualization observer readout
Local Sidereal Time
21:43:22
Azimuth
Unknown
Elevation
Unknown
Doppler factor
Unknown
Orbital elements
Apogee altitude
35,924.732 km
Perigee altitude
35,651.688 km
Semi-major axis
42,166.347 km
Eccentricity
0.00324
Inclination
5.087°
RAAN
278.1939°
Arg. of periapsis
356.3588°
True anomaly
15.87394°
Mean anomaly
15.7727°
Eccentric anomaly
15.82328°
Mean motion
0.25067 °/min
Orbital period
1,436.18 mins
BSTAR
0
Loading maneuver chart data...
Computing Atmospheric mass density...
Loading historical data...
Loading historical data...
Loading historical data...
Loading historical data...
Loading historical data...
Loading historical data...
Loading historical data...
Other satellites on launch #62 in the year 2025 (2025-03-26 UTC)

Documentation

Showing up to 5 results
|